Wind_Speed
38 33 38 40 33 23 31 30 18 24 19 32 26 21 19 27 25 32 27 22 20 20 19 21 21 19 18 19 19 16 13 14 14 14 15 17 20 25 26 29 33 30 32 28
39 29 27 27 25 17 21 28 21 18 20 20 24 21 22 22 26 26 28 28 26 26 25 24 23 22 20 19 18 16 15 16 17 17 18 20 22 26 29 33 35 37 36 34
29 23 32 33 29 19 19 28 33 18 23 21 18 19 27 26 26 25 24 22 23 29 30 24 23 23 21 21 21 22 21 20 20 21 20 23 24 25 29 31 32 37 35 36
18 6 35 32 25 19 13 20 25 29 20 20 19 19 28 30 29 28 26 23 21 24 28 28 30 28 28 26 25 23 22 23 24 24 25 25 24 26 31 32 33 33 37 38
11 30 33 34 34 25 16 19 18 22 24 18 19 16 25 29 30 32 27 23 22 19 18 20 22 24 26 27 26 23 25 27 27 26 25 24 24 26 28 31 33 35 37 38
7 23 15 31 33 31 20 16 16 18 16 16 23 23 21 28 28 30 28 23 21 22 23 22 21 21 20 24 26 27 25 25 25 22 22 24 26 26 28 33 36 40 40 40
9 15 13 24 28 26 25 21 11 9 9 6 17 14 18 15 21 25 28 28 25 27 31 32 28 22 18 21 25 26 22 21 23 25 22 21 22 23 26 30 35 37 35 33
12 8 18 21 29 24 25 29 10 7 9 9 10 12 13 19 14 17 22 25 30 30 27 25 21 21 18 18 23 24 22 21 19 17 17 17 22 27 29 31 32 31 30 32
9 5 22 15 25 26 30 25 13 7 6 9 11 9 6 10 14 18 21 17 20 21 22 19 19 20 17 23 23 21 21 18 16 12 12 16 19 22 24 26 27 29 30 31
11 13 20 20 24 21 27 26 16 5 8 6 6 6 10 9 20 19 20 23 20 21 20 20 19 20 21 24 23 23 20 16 13 10 11 12 16 21 23 23 25 26 28 31
12 14 18 25 20 21 25 25 18 10 4 7 4 4 8 10 9 12 14 14 13 14 20 20 20 24 25 25 26 23 17 14 10 9 11 15 20 22 22 23 25 26 28 31
5 16 22 23 19 21 19 23 19 19 11 5 1 4 4 8 8 10 9 9 7 13 19 23 21 26 27 25 21 19 16 12 9 11 15 19 25 28 28 31 32 34 38 42
11 14 19 14 14 25 22 23 20 18 16 14 7 4 6 10 9 9 11 9 9 11 17 23 28 29 24 22 20 17 13 10 12 16 18 25 31 34 36 39 41 43 46 50
8 10 13 13 17 23 22 28 25 24 12 9 15 12 14 8 7 10 11 12 15 18 25 33 30 28 26 22 18 15 14 15 15 18 23 28 35 38 41 45 46 48 52 55
10 8 10 11 9 15 15 20 29 27 22 14 15 17 13 8 9 10 8 14 16 26 35 31 30 26 24 21 17 15 15 15 19 23 26 31 36 41 46 48 51 54 57 54
15 8 8 4 6 10 11 13 19 22 21 19 14 15 13 13 13 6 12 8 22 35 34 32 28 23 21 16 13 13 16 19 23 26 31 36 41 46 50 53 56 58 53 48
18 12 10 7 14 12 8 13 16 19 20 19 14 12 14 15 14 5 8 8 22 28 28 28 25 22 18 14 13 16 19 24 26 31 36 40 45 49 54 57 56 50 47 49
18 19 8 9 14 6 8 10 9 12 11 13 12 14 16 18 16 12 14 13 17 22 24 21 18 16 16 17 17 22 24 27 32 36 40 45 50 54 57 53 46 47 48 52
20 20 9 8 8 4 11 15 16 15 16 17 17 15 12 17 19 20 20 20 18 18 20 19 13 15 21 23 26 27 29 34 38 42 46 51 54 52 47 44 45 48 51 45
19 22 17 18 7 7 11 15 15 15 11 16 15 15 11 14 22 22 21 21 21 20 20 20 20 16 20 24 26 29 35 39 44 48 49 47 45 43 42 44 47 47 40 38
20 22 20 17 9 8 13 18 18 11 7 15 19 18 13 10 10 7 12 12 12 11 10 11 13 16 20 25 30 35 40 44 44 42 41 40 41 42 43 45 41 36 33 31
22 18 15 14 10 6 17 22 21 15 5 5 17 18 15 13 10 7 7 5 5 8 11 15 19 23 27 32 36 39 39 38 37 36 37 38 40 42 40 34 31 29 25 25
19 23 22 21 18 10 18 20 22 15 10 8 15 19 16 14 12 12 10 9 10 14 18 22 26 29 31 32 32 32 32 33 34 36 37 38 38 33 28 26 24 22 23 21
23 28 20 19 19 16 18 19 15 12 8 14 17 17 19 16 12 11 11 13 17 21 23 23 24 25 26 26 27 28 29 32 34 36 34 30 26 24 23 22 21 21 21 24
28 25 23 19 19 18 17 18 11 13 15 20 22 19 16 15 15 16 18 19 18 18 18 19 20 20 21 22 24 26 30 32 33 30 26 21 19 17 16 20 23 19 24 27
28 29 24 22 22 21 20 20 17 18 20 18 14 14 13 14 14 12 12 12 12 13 15 17 17 18 19 21 24 28 31 31 28 25 19 12 13 19 16 21 17 24 25 24
Wind_Direction
184 184 189 192 194 197 201 196 194 201 206 207 206 200 191 194 188 196 193 199 209 200 199 189 192 197 195 197 203 202 223 239 252 252 271 263 256 262 263 253 255 270 277 282
183 195 188 189 187 192 193 195 193 184 190 197 204 202 201 193 200 205 203 207 213 213 208 205 203 197 196 206 216 232 249 249 256 272 269 262 259 268 264 261 257 264 276 282
185 195 188 180 180 181 194 201 198 176 183 190 184 200 203 204 202 197 200 206 213 222 232 226 234 233 244 255 262 265 256 257 251 259 257 256 260 266 263 265 267 269 270 276
194 192 195 186 182 169 158 190 204 197 176 193 194 210 207 211 212 210 210 215 224 225 222 231 239 245 251 256 254 255 246 248 245 243 251 258 259 261 262 262 269 268 268 276
193 200 189 193 187 176 152 132 166 187 200 198 206 219 214 210 207 218 218 222 223 225 225 225 231 237 241 245 241 237 234 234 238 242 251 257 270 271 268 269 273 278 285 284
127 183 179 196 193 184 159 142 143 159 167 198 211 215 223 221 221 223 225 226 231 233 238 239 239 245 245 223 218 219 226 233 240 244 254 263 271 279 278 278 285 288 288 285
155 165 162 188 180 185 185 172 154 177 195 196 201 200 223 222 226 227 231 234 236 241 244 239 242 241 249 240 218 216 222 229 238 251 261 269 279 292 297 293 287 284 284 286
163 166 179 180 178 180 180 181 176 178 182 169 176 220 224 221 217 208 216 223 229 235 236 230 230 226 234 229 206 210 222 234 234 254 264 283 298 302 292 281 280 285 290 292
154 142 168 174 173 172 185 190 179 113 142 168 195 231 238 228 234 239 234 238 233 238 224 231 230 221 219 207 201 214 222 227 245 254 282 304 311 301 294 293 293 295 296 297
157 133 168 163 168 189 190 182 196 194 173 178 178 230 232 233 232 227 229 233 234 229 219 219 217 213 195 198 208 208 210 228 236 267 307 321 313 308 306 301 298 297 297 298
152 154 165 164 180 176 170 181 191 192 171 192 199 205 212 222 220 211 217 222 225 235 216 210 206 189 188 197 200 208 205 221 244 287 299 310 322 323 313 301 300 301 300 304
137 146 162 170 180 188 173 183 182 190 200 216 149 252 226 216 213 200 203 227 234 227 215 206 191 184 194 202 195 200 215 232 264 285 295 318 327 322 318 312 312 318 321 322
165 150 147 159 172 189 195 194 191 198 209 217 209 237 241 261 262 256 249 290 261 234 218 187 176 190 194 191 197 209 223 248 272 284 308 320 326 324 322 320 321 323 324 322
155 129 154 164 170 187 197 207 207 206 203 206 227 245 262 273 283 280 265 262 266 218 186 173 186 184 183 192 201 218 232 255 283 303 309 320 322 320 320 318 319 319 318 317
188 164 121 118 151 175 185 198 210 209 222 212 246 253 238 255 255 260 294 289 232 193 174 179 174 181 188 200 214 230 254 280 296 301 311 316 315 316 314 313 314 314 314 314
188 182 198 105 132 166 180 202 202 205 220 224 240 223 237 241 236 257 354 255 188 173 173 170 178 189 199 212 232 260 280 289 292 301 309 309 309 308 308 309 310 310 310 311
195 197 178 152 150 146 144 178 185 202 210 219 221 214 229 223 226 203 81 178 171 168 173 182 192 202 205 227 245 268 281 287 291 300 301 300 301 304 305 306 307 306 307 308
197 190 173 162 160 184 178 182 194 191 194 197 206 217 220 220 210 185 170 172 190 182 188 191 204 215 225 237 263 276 282 285 289 292 295 298 299 301 303 305 305 306 307 307
195 197 172 159 186 171 177 189 203 206 212 210 208 217 212 218 206 189 180 166 170 172 191 200 260 265 249 262 261 273 280 283 290 293 295 296 298 302 302 302 304 304 306 307
196 197 194 181 184 198 227 206 205 203 229 220 218 207 235 219 206 209 206 207 207 212 230 256 260 261 252 256 267 274 279 286 289 292 294 298 299 299 300 302 304 305 307 307
192 192 196 194 198 209 207 199 201 200 249 225 218 214 221 227 200 197 184 190 201 214 230 250 261 264 267 273 275 278 283 287 291 296 299 299 298 298 302 303 304 304 305 307
195 181 194 195 193 210 199 194 193 214 197 190 211 210 206 217 217 219 206 211 241 253 257 262 267 271 273 277 282 286 290 295 299 299 298 298 301 303 303 302 302 304 308 312
195 196 195 200 205 209 199 201 203 203 211 203 204 199 201 213 209 216 213 226 249 262 266 268 272 278 284 286 289 294 298 300 301 300 301 303 303 301 301 300 307 310 312 317
198 199 197 195 198 190 183 199 205 206 169 181 181 191 195 206 207 216 235 250 258 264 270 276 280 284 290 297 301 302 306 308 307 304 303 302 301 299 306 316 317 319 321 325
200 198 203 196 188 184 184 188 198 196 166 169 170 178 188 201 218 234 244 253 261 269 277 284 292 298 301 304 309 314 315 312 310 309 307 303 303 320 320 316 325 329 323 328
203 204 199 197 196 199 187 180 172 175 167 170 182 196 208 220 229 237 248 258 270 284 294 299 303 306 311 315 318 324 324 321 319 315 308 303 312 315 320 330 330 323 328 332
Height
3041 3046 3046 3053 3064 3074 3078 3084 3090 3098 3102 3108 3113 3120 3124 3128 3131 3137 3139 3144 3149 3152 3153 3157 3160 3164 3168 3171 3172 3173 3174 3176 3178 3179 3179 3180 3180 3180 3178 3177 3178 3179 3179 3178
3040 3044 3053 3058 3067 3071 3076 3082 3090 3096 3102 3107 3110 3117 3123 3125 3130 3135 3138 3142 3146 3149 3151 3155 3158 3162 3165 3167 3169 3170 3171 3172 3174 3174 3175 3176 3176 3175 3173 3172 3172 3173 3173 3173
3038 3045 3050 3058 3065 3070 3075 3079 3086 3094 3098 3104 3108 3115 3118 3122 3126 3130 3133 3137 3140 3143 3146 3150 3154 3158 3161 3163 3165 3165 3167 3168 3170 3171 3171 3172 3171 3170 3168 3168 3168 3168 3168 3167
3042 3045 3050 3057 3064 3070 3074 3077 3084 3093 3097 3100 3106 3108 3112 3116 3121 3124 3129 3132 3136 3139 3143 3147 3151 3154 3156 3158 3160 3161 3163 3164 3165 3166 3166 3166 3166 3164 3163 3163 3164 3163 3163 3161
3041 3043 3047 3054 3061 3070 3076 3078 3084 3090 3097 3101 3103 3108 3106 3112 3114 3118 3123 3127 3131 3135 3138 3142 3146 3149 3151 3153 3155 3157 3159 3160 3162 3162 3163 3163 3162 3161 3160 3159 3159 3157 3155 3153
3040 3044 3049 3053 3062 3070 3076 3080 3084 3089 3094 3097 3099 3103 3102 3104 3107 3114 3119 3123 3127 3130 3133 3136 3138 3142 3144 3147 3149 3152 3154 3156 3157 3158 3158 3158 3157 3156 3155 3154 3151 3149 3147 3145
3040 3044 3047 3052 3061 3070 3075 3079 3083 3090 3090 3090 3096 3100 3098 3100 3103 3109 3114 3118 3122 3124 3126 3129 3132 3135 3139 3141 3144 3148 3151 3152 3153 3153 3154 3154 3153 3153 3151 3148 3145 3142 3139 3136
3039 3045 3046 3050 3058 3061 3071 3076 3075 3077 3081 3086 3093 3092 3094 3098 3101 3104 3108 3112 3115 3118 3119 3123 3127 3129 3133 3136 3139 3143 3146 3148 3149 3150 3150 3150 3149 3147 3144 3140 3137 3134 3132 3130
3037 3041 3046 3050 3057 3063 3069 3074 3077 3078 3081 3084 3088 3090 3092 3094 3097 3100 3103 3106 3109 3111 3114 3117 3121 3124 3128 3132 3136 3139 3142 3143 3144 3145 3145 3143 3142 3140 3137 3134 3131 3129 3126 3122
3035 3041 3047 3052 3058 3063 3065 3073 3076 3077 3079 3082 3085 3087 3087 3088 3090 3093 3097 3100 3103 3105 3107 3111 3115 3119 3124 3128 3132 3134 3136 3138 3139 3139 3138 3137 3136 3134 3132 3130 3127 3124 3121 3118
3036 3039 3047 3052 3055 3059 3064 3069 3074 3077 3077 3078 3080 3082 3083 3084 3087 3089 3092 3094 3097 3098 3101 3104 3108 3114 3119 3123 3126 3130 3132 3134 3134 3133 3133 3132 3131 3130 3128 3125 3123 3119 3115 3112
3037 3041 3046 3051 3056 3060 3064 3068 3071 3074 3077 3078 3079 3080 3079 3082 3084 3086 3089 3090 3091 3092 3095 3098 3103 3110 3115 3119 3123 3126 3127 3128 3129 3128 3127 3127 3126 3123 3121 3119 3114 3110 3106 3102
3037 3041 3046 3053 3057 3059 3062 3065 3069 3072 3074 3075 3078 3077 3077 3080 3082 3083 3085 3086 3086 3087 3090 3094 3100 3106 3112 3116 3119 3121 3122 3123 3122 3122 3122 3121 3118 3115 3112 3110 3106 3101 3096 3092
3039 3040 3043 3046 3049 3053 3057 3060 3065 3068 3072 3072 3074 3075 3076 3078 3078 3079 3080 3081 3081 3082 3086 3090 3097 3103 3108 3112 3114 3116 3117 3117 3117 3118 3117 3115 3112 3108 3105 3102 3097 3092 3087 3082
3038 3040 3043 3045 3048 3051 3053 3056 3059 3064 3067 3071 3071 3072 3073 3074 3075 3075 3074 3073 3074 3077 3082 3090 3095 3101 3104 3107 3109 3111 3113 3113 3113 3112 3109 3106 3104 3101 3099 3094 3089 3083 3078 3072
3037 3040 3043 3046 3048 3050 3052 3054 3058 3062 3064 3067 3068 3069 3070 3070 3071 3072 3071 3067 3069 3075 3082 3088 3093 3097 3101 3104 3107 3108 3108 3108 3107 3105 3102 3100 3098 3095 3091 3086 3080 3074 3068 3063
3037 3040 3043 3047 3049 3051 3055 3054 3056 3059 3062 3065 3066 3067 3068 3068 3068 3070 3071 3071 3073 3078 3084 3089 3093 3096 3099 3101 3103 3104 3103 3103 3101 3099 3097 3094 3091 3087 3082 3077 3070 3065 3059 3054
3035 3039 3043 3047 3049 3052 3053 3055 3057 3059 3060 3062 3063 3064 3065 3066 3067 3070 3072 3074 3078 3081 3086 3089 3093 3096 3097 3099 3100 3099 3099 3097 3096 3093 3090 3086 3082 3077 3072 3066 3060 3055 3050 3044
3034 3038 3042 3045 3049 3051 3051 3053 3055 3057 3059 3059 3060 3061 3064 3066 3068 3070 3073 3076 3080 3082 3085 3088 3089 3091 3093 3094 3095 3094 3092 3092 3089 3086 3081 3077 3071 3066 3062 3057 3052 3047 3041 3034
3031 3035 3041 3043 3046 3047 3049 3051 3053 3055 3057 3057 3059 3062 3064 3066 3068 3072 3075 3077 3079 3082 3082 3085 3087 3087 3089 3090 3089 3088 3088 3085 3081 3077 3073 3066 3060 3057 3054 3048 3042 3036 3030 3024
3028 3032 3035 3037 3041 3042 3045 3047 3051 3056 3058 3053 3056 3060 3062 3065 3069 3071 3074 3076 3078 3080 3081 3083 3084 3085 3085 3085 3084 3083 3080 3076 3072 3066 3060 3056 3053 3049 3043 3037 3031 3026 3022 3017
3024 3029 3032 3035 3037 3040 3041 3044 3049 3050 3051 3052 3054 3058 3060 3064 3067 3069 3073 3075 3077 3079 3080 3081 3081 3081 3081 3079 3077 3073 3069 3064 3059 3056 3052 3048 3043 3037 3032 3027 3022 3019 3015 3011
3022 3024 3027 3031 3033 3034 3036 3041 3045 3047 3050 3052 3054 3057 3061 3064 3067 3070 3072 3074 3075 3076 3077 3077 3077 3075 3073 3070 3067 3064 3060 3056 3052 3048 3043 3037 3032 3028 3024 3020 3016 3013 3010 3006
3016 3019 3023 3028 3029 3032 3035 3039 3043 3046 3049 3051 3054 3057 3060 3063 3066 3068 3070 3071 3072 3072 3072 3071 3070 3068 3065 3062 3059 3056 3053 3048 3043 3037 3033 3029 3024 3020 3017 3014 3011 3007 3004 3000
3011 3016 3019 3023 3026 3030 3034 3038 3042 3044 3047 3050 3053 3057 3061 3063 3065 3067 3068 3068 3069 3068 3067 3066 3063 3061 3058 3056 3052 3049 3045 3039 3034 3028 3024 3021 3018 3015 3013 3010 3006 3002 2998 2994
3006 3011 3015 3019 3023 3027 3032 3036 3040 3044 3047 3051 3054 3057 3059 3060 3062 3063 3063 3064 3063 3062 3061 3059 3058 3055 3052 3049 3046 3041 3035 3029 3024 3020 3017 3015 3014 3012 3009 3006 3003 2998 2993 2989